Owosso, MI

11:59 AM EST on December 15, 2017 (GMT -0500)
Owosso

Weather History for KRNP - August, 2013

Change the Weather History Date:

Friday, August 23, 2013

  Actual Average (KFNT) Record (KFNT)
Temperature  
Mean Temperature 66 °F -  
Max Temperature 79 °F 76 °F 98 °F (1936)
Min Temperature 53 °F 57 °F 41 °F (1952)
Cooling Degree Days 1    
Growing Degree Days 16 (Base 50)    
Moisture  
Dew Point 57 °F    
Average Humidity 73    
Maximum Humidity 100    
Minimum Humidity 42    
Precipitation  
Precipitation 0.00 in - - ()
Sea Level Pressure  
Sea Level Pressure 30.15 in    
Wind  
Wind Speed 3 mph (North)    
Max Wind Speed 10 mph    
Max Gust Speed -    
Visibility 8 miles    
Events Fog    
Averages and records for this station are not official NWS values.
T = Trace of Precipitation, MM = Missing Value Source: NWS Daily Summary

Daily Weather History Graph

Daily Weather History Graph

Search for Another Location

Airport or City:

Trip Planner

Search our weather history database for the weather conditions in past years. The results will help you decide how hot, cold, wet, or windy it might be!

Date:

Astronomy

Aug. 23, 2013 Rise Set
Actual Time 6:51 AM EDT 8:25 PM EDT
Civil Twilight 6:21 AM EDT 8:55 PM EDT
Nautical Twilight 5:45 AM EDT 9:31 PM EDT
Astronomical Twilight 5:06 AM EDT 10:10 PM EDT
Moon 9:37 PM EDT (8/23) 9:51 AM EDT (8/23)
Length of Visible Light 14h 34m
Length of Day
13h 34m
Waning Gibbous, 91% of the Moon is Illuminated
Aug 23
Waning Gibbous
Aug 28
Last Quarter
Sep 5
New
Sep 12
First Quarter
Sep 19
Full

Hourly Weather History & Observations

Time (EDT) Temp. Dew Point Humidity Pressure Visibility Wind Dir Wind Speed Gust Speed Precip Events Conditions
12:14 AM 67.1 °F 63.0 °F 87% 30.08 in 10.0 mi North 4.6 mph - N/A   Clear
12:35 AM 66.0 °F 61.9 °F 86% 30.09 in 10.0 mi North 3.5 mph - N/A   Clear
12:55 AM 65.5 °F 61.7 °F 88% 30.09 in 10.0 mi Calm Calm - N/A   Clear
1:15 AM 64.8 °F 60.8 °F 87% 30.10 in 10.0 mi Calm Calm - N/A   Clear
1:35 AM 63.3 °F 60.1 °F 89% 30.10 in 10.0 mi Calm Calm - N/A   Clear
1:54 AM 61.3 °F 58.8 °F 91% 30.11 in 10.0 mi Calm Calm - N/A   Clear
2:15 AM 59.4 °F 57.7 °F 94% 30.11 in 10.0 mi Calm Calm - N/A   Clear
2:35 AM 59.2 °F 58.1 °F 96% 30.11 in 10.0 mi Calm Calm - N/A   Clear
2:55 AM 59.4 °F 58.3 °F 96% 30.11 in 7.0 mi Calm Calm - N/A   Clear
3:15 AM 58.8 °F 57.9 °F 97% 30.11 in 7.0 mi Calm Calm - N/A   Clear
3:35 AM 58.3 °F 57.4 °F 97% 30.11 in 2.0 mi Calm Calm - N/A   Clear
3:55 AM 57.0 °F 56.3 °F 97% 30.11 in 5.0 mi Calm Calm - N/A   Clear
4:15 AM 56.5 °F 55.8 °F 97% 30.11 in 2.5 mi Calm Calm - N/A   Clear
4:35 AM 56.3 °F 55.9 °F 99% 30.11 in 5.0 mi Calm Calm - N/A   Clear
4:55 AM 55.6 °F 55.2 °F 99% 30.11 in 0.5 mi Calm Calm - N/A Fog Fog
5:15 AM 55.8 °F 55.4 °F 99% 30.11 in 0.8 mi Calm Calm - N/A   Mist
5:35 AM 55.8 °F 55.4 °F 99% 30.12 in 0.5 mi Calm Calm - N/A Fog Fog
5:55 AM 54.1 °F 53.8 °F 99% 30.12 in 5.0 mi Calm Calm - N/A   Clear
6:15 AM 54.1 °F 54.0 °F 99% 30.12 in 1.0 mi Calm Calm - N/A   Mist
6:35 AM 53.2 °F 53.2 °F 100% 30.13 in 0.5 mi Calm Calm - N/A Fog Fog
6:55 AM 54.5 °F 54.3 °F 99% 30.14 in 0.2 mi Calm Calm - N/A Fog Fog
7:15 AM 53.8 °F 53.6 °F 99% 30.15 in 0.2 mi Calm Calm - N/A Fog Fog
7:35 AM 53.6 °F 53.6 °F 100% 30.15 in 2.0 mi Calm Calm - N/A   Clear
7:55 AM 57.9 °F 57.9 °F 100% 30.16 in 10.0 mi Calm Calm - N/A   Clear
8:15 AM 58.8 °F 57.7 °F 96% 30.17 in 10.0 mi NW 3.5 mph - N/A   Clear
8:35 AM 59.9 °F 57.6 °F 92% 30.17 in 10.0 mi NNW 3.5 mph - N/A   Clear
8:55 AM 62.6 °F 56.3 °F 80% 30.17 in 10.0 mi Calm Calm - N/A   Clear
9:15 AM 63.5 °F 55.6 °F 75% 30.17 in 10.0 mi Calm Calm - N/A   Clear
9:35 AM 65.1 °F 56.8 °F 75% 30.17 in 10.0 mi Calm Calm - N/A   Clear
9:55 AM 66.2 °F 57.4 °F 73% 30.18 in 10.0 mi North 4.6 mph - N/A   Clear
10:15 AM 67.5 °F 58.3 °F 72% 30.18 in 10.0 mi NE 3.5 mph - N/A   Clear
10:35 AM 68.9 °F 58.8 °F 70% 30.19 in 10.0 mi North 3.5 mph - N/A   Clear
10:55 AM 70.3 °F 58.8 °F 67% 30.18 in 10.0 mi NNE 3.5 mph - N/A   Clear
11:14 AM 72.0 °F 59.0 °F 64% 30.19 in 10.0 mi WNW 4.6 mph - N/A   Clear
11:35 AM 72.7 °F 57.2 °F 58% 30.19 in 10.0 mi North 4.6 mph - N/A   Clear
11:54 AM 74.1 °F 57.6 °F 56% 30.19 in 10.0 mi North 6.9 mph - N/A   Clear
12:15 PM 74.7 °F 57.4 °F 55% 30.19 in 10.0 mi NNW 6.9 mph - N/A   Clear
12:35 PM 75.2 °F 56.8 °F 53% 30.19 in 10.0 mi NNW 3.5 mph - N/A   Clear
12:55 PM 75.7 °F 56.7 °F 51% 30.18 in 10.0 mi NNW 9.2 mph - N/A   Clear
1:15 PM 76.5 °F 55.8 °F 49% 30.17 in 10.0 mi North 8.1 mph - N/A   Clear
1:34 PM 76.8 °F 55.6 °F 48% 30.17 in 10.0 mi North 10.4 mph - N/A   Clear
1:55 PM 77.7 °F 54.5 °F 45% 30.17 in 10.0 mi NNE 5.8 mph - N/A   Clear
2:15 PM 78.1 °F 54.9 °F 45% 30.17 in 10.0 mi NNE 4.6 mph - N/A   Scattered Clouds
2:34 PM 78.4 °F 54.5 °F 43% 30.17 in 10.0 mi NNE 5.8 mph - N/A   Scattered Clouds
2:55 PM 78.8 °F 54.1 °F 42% 30.17 in 10.0 mi ENE 4.6 mph - N/A   Scattered Clouds
3:15 PM 77.7 °F 54.5 °F 45% 30.16 in 10.0 mi NE 4.6 mph - N/A   Scattered Clouds
3:35 PM 76.6 °F 54.3 °F 46% 30.16 in 10.0 mi Calm Calm - N/A   Scattered Clouds
3:55 PM 76.5 °F 55.0 °F 47% 30.16 in 10.0 mi North 4.6 mph - N/A   Scattered Clouds
4:15 PM 77.5 °F 56.8 °F 49% 30.15 in 10.0 mi NNE 9.2 mph - N/A   Scattered Clouds
4:35 PM 79.5 °F 56.3 °F 45% 30.15 in 10.0 mi North 9.2 mph - N/A   Scattered Clouds
4:55 PM 79.3 °F 57.6 °F 47% 30.15 in 10.0 mi NE 6.9 mph - N/A   Scattered Clouds
5:15 PM 79.5 °F 56.8 °F 46% 30.15 in 10.0 mi NNE 9.2 mph - N/A   Mostly Cloudy
5:35 PM 79.0 °F 56.8 °F 46% 30.15 in 10.0 mi North 9.2 mph - N/A   Mostly Cloudy
5:55 PM 78.8 °F 57.0 °F 47% 30.15 in 10.0 mi North 10.4 mph - N/A   Scattered Clouds
6:14 PM 78.1 °F 56.7 °F 48% 30.15 in 10.0 mi NNE 8.1 mph - N/A   Clear
6:35 PM 77.5 °F 56.7 °F 48% 30.15 in 10.0 mi North 9.2 mph - N/A   Clear
6:54 PM 77.0 °F 55.9 °F 48% 30.15 in 10.0 mi North 8.1 mph - N/A   Clear
7:15 PM 76.1 °F 55.4 °F 49% 30.15 in 10.0 mi North 6.9 mph - N/A   Clear
7:33 PM 75.2 °F 56.3 °F 52% 30.16 in 10.0 mi North 5.8 mph - N/A   Clear
7:43 PM 74.3 °F 56.8 °F 54% 30.16 in 10.0 mi North 5.8 mph - N/A   Clear
8:36 PM 69.8 °F 57.2 °F 64% 30.16 in 10.0 mi Calm Calm - N/A   Clear
8:57 PM 69.8 °F 57.2 °F 64% 30.17 in 10.0 mi Calm Calm - N/A   Clear
9:16 PM 68.0 °F 57.2 °F 68% 30.18 in 10.0 mi Calm Calm - N/A   Clear
9:37 PM 64.4 °F 57.2 °F 77% 30.19 in 10.0 mi Calm Calm - N/A   Clear
9:57 PM 64.4 °F 59.0 °F 83% 30.19 in 10.0 mi Calm Calm - N/A   Clear
10:16 PM 62.6 °F 57.2 °F 82% 30.20 in 10.0 mi Calm Calm - N/A   Clear
10:57 PM 59.0 °F 57.2 °F 94% 30.21 in 10.0 mi Calm Calm - N/A   Clear
11:16 PM 59.0 °F 55.4 °F 88% 30.22 in 10.0 mi Calm Calm - N/A   Clear
11:36 PM 59.0 °F 55.4 °F 88% 30.22 in 10.0 mi Calm Calm - N/A   Clear
11:56 PM 59.0 °F 57.2 °F 94% 30.23 in 10.0 mi Calm Calm - N/A   Clear